Location: Acequia del Cap
(41.7000°N, 0.6167°E)
Time: 23:17:44
(UTC+00:00)

Cosmos 2237 Rocket - Pass Details

Date: 07 August 2020
Orbit: 836 x 848 km, 71.0° (Epoch: 22 September)

Event Time Altitude Azimuth Distance (km) Brightness Sun altitude
Rises 00:50:14 0° 341° (NNW) 3,408 6.2 -31.0°
Reaches altitude 10° 00:52:50 10° 348° (NNW) 2,467 5.4 -30.8°
Maximum altitude 00:58:12 42° 59° (ENE) 1,176 3.1 -30.6°
Enters shadow 00:59:11 39° 86° (E) 1,240 3.1 -30.5°
